{"data":{"norad_id":61885,"intl_designator":"2024-204M","name":"STARLINK-11301 [DTC]","alt_names":[],"object_type":"PAYLOAD","status":"ACTIVE","operator":null,"country":"US","launch_date":"2024-11-09","launch_site_code":"AFWTR","launch_vehicle":null,"mission":null,"orbit_class":"UNKNOWN","rcs_meters":null,"size_class":null,"mass_kg":null,"dimensions":null,"purposes":["comms"],"wikipedia_slug":null,"has_3d_model":false,"image_url":null,"decayed_at":null,"tle_current":{"epoch":"2026-05-24T19:29:52.080576Z","epoch_age_seconds":101467,"freshness":"FRESH","line1":"1 61885U 24204M   26144.81240834  .00000443  00000+0  85100-5 0  9996","line2":"2 61885  53.1582 340.7757 0000778  92.9347 267.1760 15.69708870 88874","mean_motion":15.6970887,"eccentricity":7.78e-5,"inclination_deg":53.1582,"raan_deg":340.7757,"arg_perigee_deg":92.9347,"mean_anomaly_deg":267.176,"bstar":8.51e-6,"rev_number":8887,"period_min":91.736756255955,"perigee_km":359.20577799782,"apogee_km":360.25419010054,"semimajor_km":6737.8669840492,"source":"CELESTRAK","updated_at":"2026-05-25T13:38:19.477430Z"}}}